Terug naar catalogus

STARLINK-37303

ActiefCommunicatieVLEO
NORAD 68709·PAYLOAD·🇺🇸 United States

Gelanceerd Apr 14, 2026 vanaf Cape Canaveral Space Force Station

Loading…

Volgende Passages (komende 24 uur)

TLE

VersSource: CelesTrak SupGP

Epoch: Sep 14, 2026, 23:05 UTC

1 68709C 26081L   26257.96229167  .00014812  00000+0  43751-3 0  2576
2 68709  53.1580 231.7217 0001358  96.1884  14.8233 15.34391466    14

Volg STARLINK-37303 in realtime met AllMySat

Download on the App Store